Location: Martley
(52.2333°N, 2.3667°W)
Time: 10:18:05
(UTC+00:00)

Cosmos 1420 Rocket - Pass Details

Date: 11 December 2019
Orbit: 754 x 781 km, 74.0° (Epoch: 26 January)

Event Time Altitude Azimuth Distance (km) Brightness Sun altitude
Rises 05:22:50 0° 199° (SSW) 3,208 7.1 -23.9°
Reaches altitude 10° 05:25:12 10° 199° (SSW) 2,284 6.3 -23.6°
Maximum altitude 05:30:22 80° 113° (ESE) 775 4.0 -22.8°
Drops below altitude 10° 05:35:34 10° 27° (NNE) 2,292 6.7 -22.0°
Sets 05:37:56 0° 27° (NNE) 3,221 7.4 -21.6°
